Regional Weather Roundup
Issued by NWS

Home | Current Version | Previous Version | Graphics & Text | Print | Product List | Glossary Off
Versions: 1 2 3 4 5 6 7 8 9 10 11 12 13 14 15 16 17 18 19 20 21 22 23 24 25 26 27 28 29 30 31 32 33 34 35 36 37 38 39 40 41 42 43 44 45 46 47 48 49 50

000
ASUS43 KLMK 190710
RWRKY
KENTUCKY REGIONAL WEATHER ROUNDUP
NATIONAL WEATHER SERVICE LOUISVILLE KY
300 AM EDT SAT APR 19 2014

NOTE "FAIR" INDICATES FEW OR NO CLOUDS BELOW 12,000 FEET
WITH NO SIGNIFICANT WEATHER AND/OR OBSTRUCTIONS TO VISIBILITY.

KYZ001>023-026-027-061>063-070>075-190800-
WESTERN AND SOUTH CENTRAL KENTUCKY

CITY           SKY/WX    TMP DP  RH WIND       PRES   REMARKS
PADUCAH        PTCLDY    51  45  79 CALM      30.20F
HENDERSON      PTCLDY    55  43  62 N5        30.21S
OWENSBORO      MOCLDY    53  44  71 NW3       30.20F
HOPKINSVILLE   MOCLDY    54  43  66 N6        30.19F
BOWLING GREEN  MOCLDY    49  46  90 CALM      30.19F
GLASGOW        PTCLDY    47  46  96 CALM      30.18S
$$

KYZ024-025-028>034-038-045-046-053-190800-
NORTH CENTRAL KENTUCKY

CITY           SKY/WX    TMP DP  RH WIND       PRES   REMARKS
LOUISVILLE/SDF CLOUDY    54  41  61 N6        30.21S
LOUISVILLE/LOU PTCLDY    55  40  56 N3        30.22S
FORT KNOX      PTCLDY    51  39  63 N7        30.20S
$$

KYZ035>037-039>044-047>052-055>060-089>105-190800-
NORTHEAST KENTUCKY

CITY           SKY/WX    TMP DP  RH WIND       PRES   REMARKS
LEXINGTON      PTCLDY    51  37  58 NE7       30.20F
COVINGTON      MOCLDY    54  38  54 N13       30.24S
FRANKFORT      PTCLDY    45  40  82 N5        30.20F
$$

KYZ054-064>069-076>088-106>120-190800-
SOUTHEAST KENTUCKY

CITY           SKY/WX    TMP DP  RH WIND       PRES   REMARKS
JACKSON        CLOUDY    57  33  40 NE6       30.18F
LONDON         CLOUDY    54  40  59 N3        30.17F
SOMERSET       CLEAR     52  39  62 CALM      30.18F
MIDDLESBORO    CLOUDY    47  43  85 CALM      30.17S
MONTICELLO     PTSUNNY   44  42  93 CALM      30.19F
$$




USA.gov is the U.S. government's official web portal to all federal, state and local government web resources and services.